GW2591 Weather Reports


Display with metric or nautical units.
time (UTC)temp
F
wind
direction
speed
MPH
gust
MPH
rain 1hr
in
rain 24hr
in
rain mn
in
humidity
%
barometer
mb
20260508175353 55 234 7.0 11.0 0.02 0.10 0.10 77 1010.8
20260508174852 54 232 5.0 14.0 0.02 0.10 0.10 76 1010.6
20260508174349 55 276 12.0 15.0 0.00 0.09 0.09 73 1011.1
20260508173845 55 254 6.0 10.0 0.00 0.09 0.09 73 1010.9
20260508173342 55 222 6.0 11.0 0.00 0.09 0.09 71 1010.5
20260508172837 55 231 4.0 13.0 0.00 0.09 0.09 71 1010.8
20260508172335 56 223 4.0 11.0 0.00 0.09 0.09 72 1010.8
20260508171832 56 200 4.0 14.0 0.00 0.09 0.09 74 1010.7
20260508171328 55 159 4.0 15.0 0.00 0.09 0.09 74 1011.0
20260508170825 55 212 13.0 15.0 0.00 0.09 0.09 75 1011.0
20260508170323 54 207 6.0 16.0 0.00 0.09 0.09 75 1011.2
20260508165819 54 233 7.0 13.0 0.00 0.09 0.09 74 1011.3
20260508165317 52 215 8.0 15.0 0.00 0.09 0.09 77 1011.4
20260508164812 52 222 5.0 10.0 0.00 0.09 0.09 79 1011.4
20260508164309 52 211 4.0 11.0 0.02 0.09 0.09 78 1011.4
20260508163808 51 209 3.0 12.0 0.05 0.09 0.09 79 1011.4
20260508163305 51 209 4.0 12.0 0.05 0.09 0.09 77 1011.7
20260508162800 52 222 4.0 12.0 0.02 0.09 0.09 76 1011.9
20260508162257 52 225 7.0 11.0 0.02 0.08 0.08 75 1012.1
20260508161754 52 216 5.0 11.0 0.02 0.08 0.08 74 1011.9
20260508161251 53 218 4.0 9.0 0.00 0.08 0.08 74 1012.1
20260508160749 53 253 11.0 16.0 0.00 0.08 0.08 71 1012.2
20260508160248 53 229 6.0 12.0 0.00 0.08 0.08 72 1012.1
20260508155744 53 252 9.0 16.0 0.00 0.08 0.08 70 1012.1
20260508155241 53 259 5.0 13.0 0.00 0.08 0.08 71 1012.1
20260508154737 53 227 7.0 12.0 0.00 0.08 0.08 69 1011.8
20260508154235 53 241 9.0 15.0 0.00 0.08 0.08 69 1012.0
20260508153731 53 246 10.0 14.0 0.00 0.08 0.08 71 1012.0
20260508153229 53 248 10.0 13.0 0.00 0.08 0.08 70 1011.9
20260508152725 53 250 10.0 16.0 0.00 0.08 0.08 69 1012.0
20260508152221 53 249 8.0 12.0 0.00 0.08 0.08 71 1011.8
20260508151718 53 251 8.0 18.0 0.00 0.08 0.08 70 1011.7
20260508151214 53 261 13.0 20.0 0.00 0.08 0.08 68 1011.8
20260508150711 53 261 18.0 20.0 0.00 0.08 0.08 68 1011.8
20260508150208 54 238 17.0 17.0 0.00 0.08 0.08 68 1011.9
20260508145703 54 240 14.0 17.0 0.00 0.08 0.08 67 1011.9
20260508145200 54 239 9.0 18.0 0.00 0.08 0.08 68 1011.9
20260508144658 54 243 11.0 17.0 0.00 0.08 0.08 67 1011.9
20260508144155 54 241 4.0 15.0 0.00 0.08 0.08 69 1011.9
20260508143653 53 259 6.0 18.0 0.00 0.08 0.08 69 1012.0
20260508143150 53 250 9.0 20.0 0.00 0.08 0.08 69 1011.8
20260508142645 53 249 8.0 16.0 0.00 0.08 0.08 68 1011.6
20260508142143 53 225 7.0 13.0 0.00 0.08 0.08 71 1011.9
20260508141639 53 239 17.0 20.0 0.00 0.08 0.08 69 1012.0
20260508141137 53 251 8.0 22.0 0.00 0.08 0.08 69 1012.0
20260508140634 53 248 8.0 15.0 0.00 0.08 0.08 69 1012.0
20260508140131 53 249 12.0 13.0 0.00 0.08 0.08 71 1011.6
20260508135626 53 235 12.0 17.0 0.00 0.08 0.08 68 1011.7
20260508135122 53 261 5.0 16.0 0.00 0.08 0.08 69 1011.9
20260508134619 52 249 20.0 20.0 0.00 0.08 0.08 68 1012.0
20260508134116 52 252 15.0 17.0 0.00 0.08 0.08 68 1012.0
20260508133613 52 246 11.0 16.0 0.00 0.08 0.08 67 1012.0
20260508133110 52 265 11.0 19.0 0.00 0.08 0.08 68 1012.0
20260508132608 52 259 7.0 11.0 0.00 0.08 0.08 69 1011.9
20260508132105 52 256 11.0 16.0 0.00 0.08 0.08 68 1011.9
20260508131600 52 249 10.0 15.0 0.00 0.08 0.08 68 1012.0
20260508131057 52 254 13.0 16.0 0.00 0.08 0.08 68 1011.8
20260508130554 52 264 13.0 17.0 0.00 0.08 0.08 68 1012.2
20260508130050 52 289 8.0 17.0 0.00 0.08 0.08 68 1012.0
20260508125546 52 251 11.0 21.0 0.00 0.08 0.08 68 1012.1
20260508125044 52 261 16.0 22.0 0.00 0.08 0.08 66 1012.0
20260508124542 51 259 13.0 15.0 0.00 0.08 0.08 69 1012.1
20260508124038 50 238 5.0 13.0 0.00 0.08 0.08 70 1011.8
20260508123537 50 238 4.0 12.0 0.00 0.08 0.08 70 1012.0
20260508123033 50 248 9.0 11.0 0.00 0.08 0.08 71 1011.9
20260508122530 49 252 6.0 13.0 0.00 0.08 0.08 71 1012.0
20260508122027 49 249 8.0 12.0 0.00 0.08 0.08 72 1011.9
20260508121526 49 227 4.0 9.0 0.00 0.08 0.08 72 1011.8
20260508121023 49 261 7.0 11.0 0.00 0.08 0.08 71 1011.9
20260508120520 49 239 7.0 15.0 0.00 0.08 0.08 71 1011.9
20260508120019 48 238 11.0 11.0 0.00 0.08 0.08 72 1012.0
20260508115516 48 242 7.0 13.0 0.00 0.08 0.08 73 1011.9
20260508115012 48 241 4.0 9.0 0.00 0.08 0.08 73 1011.8
20260508114509 48 230 5.0 12.0 0.00 0.08 0.08 72 1011.6
20260508114005 48 220 5.0 10.0 0.00 0.08 0.08 72 1011.7
20260508113503 48 237 5.0 11.0 0.00 0.08 0.08 72 1011.6
20260508113000 48 230 3.0 8.0 0.00 0.08 0.08 72 1011.5
20260508112457 48 218 4.0 9.0 0.00 0.08 0.08 71 1011.3
20260508111954 48 228 3.0 8.0 0.00 0.08 0.08 71 1011.2
20260508111450 48 202 5.0 9.0 0.00 0.08 0.08 71 1011.1
20260508110948 48 205 5.0 8.0 0.00 0.08 0.08 71 1011.2
20260508110445 47 221 7.0 11.0 0.00 0.08 0.08 72 1010.9
20260508105945 47 216 4.0 11.0 0.00 0.08 0.08 72 1010.9
20260508105441 47 225 3.0 10.0 0.00 0.08 0.08 72 1010.9
20260508104939 47 221 5.0 14.0 0.00 0.08 0.08 72 1010.9
20260508104436 47 211 7.0 17.0 0.00 0.08 0.08 74 1011.0
20260508103933 47 213 6.0 13.0 0.00 0.08 0.08 74 1011.0
20260508103430 46 210 3.0 13.0 0.00 0.08 0.08 74 1010.9
20260508102927 46 221 6.0 13.0 0.00 0.08 0.08 76 1011.1
20260508102425 46 214 7.0 14.0 0.00 0.08 0.08 77 1010.9
20260508101922 45 205 6.0 11.0 0.00 0.08 0.08 78 1010.9
20260508101420 45 202 7.0 8.0 0.00 0.08 0.08 79 1010.9
20260508100916 45 208 6.0 10.0 0.00 0.08 0.08 80 1011.0
20260508100416 45 206 7.0 9.0 0.00 0.08 0.08 80 1011.0
20260508095911 45 205 7.0 9.0 0.00 0.08 0.08 81 1010.9
20260508095409 45 194 6.0 9.0 0.00 0.08 0.08 81 1011.1
20260508094905 45 193 3.0 7.0 0.00 0.08 0.08 81 1011.0
20260508094402 45 197 4.0 7.0 0.00 0.08 0.08 82 1011.3
20260508093859 45 159 3.0 6.0 0.00 0.08 0.08 82 1011.1
20260508093357 45 204 5.0 7.0 0.00 0.08 0.08 81 1011.2
20260508092854 45 190 5.0 7.0 0.00 0.08 0.08 81 1011.2
20260508092352 46 184 3.0 7.0 0.00 0.08 0.08 81 1011.1
20260508091850 46 198 5.0 8.0 0.00 0.08 0.08 80 1011.2
20260508091346 46 201 7.0 9.0 0.00 0.08 0.08 80 1011.1
20260508090844 46 177 3.0 6.0 0.00 0.08 0.08 79 1011.1
20260508090342 46 192 4.0 8.0 0.00 0.08 0.08 79 1011.2
20260508085837 47 202 3.0 8.0 0.00 0.08 0.08 79 1011.2
20260508085334 47 181 4.0 7.0 0.00 0.08 0.08 79 1011.3
20260508084831 46 188 2.0 7.0 0.00 0.08 0.08 79 1011.2
20260508084328 46 134 3.0 7.0 0.00 0.08 0.08 79 1011.1
20260508083826 46 183 3.0 7.0 0.00 0.08 0.08 79 1011.2
20260508083323 46 190 5.0 9.0 0.00 0.08 0.08 79 1011.2
20260508082822 46 188 6.0 9.0 0.00 0.08 0.08 80 1011.1
20260508082320 46 120 2.0 6.0 0.00 0.08 0.08 80 1011.1
20260508081817 46 180 2.0 7.0 0.00 0.08 0.08 81 1011.4
20260508081314 46 182 3.0 5.0 0.00 0.08 0.08 81 1011.3
20260508080811 46 174 5.0 7.0 0.00 0.08 0.08 81 1011.3
20260508080309 46 208 1.0 7.0 0.00 0.08 0.08 81 1011.4
20260508075805 46 186 3.0 10.0 0.00 0.08 0.08 80 1011.4
20260508075307 46 156 4.0 12.0 0.00 0.08 0.08 80 1011.4
20260508074801 46 191 4.0 8.0 0.00 0.08 0.08 81 1011.3
20260508074257 46 194 4.0 7.0 0.00 0.08 0.08 81 1011.4
20260508073754 46 180 3.0 9.0 0.00 0.08 0.08 80 1011.4
20260508073252 46 181 2.0 8.0 0.00 0.08 0.08 80 1011.6
20260508072748 47 200 5.0 10.0 0.00 0.08 0.08 80 1011.5
20260508072245 46 205 6.0 10.0 0.00 0.08 0.08 81 1011.5
20260508071742 47 212 8.0 11.0 0.00 0.08 0.08 81 1011.7
20260508071241 47 196 4.0 6.0 0.00 0.08 0.08 81 1011.6
20260508070737 46 217 2.0 3.0 0.02 0.08 0.08 82 1011.7
20260508070236 46 206 3.0 8.0 0.02 0.08 0.08 83 1011.8
20260508065733 46 215 2.0 5.0 0.00 0.07 0.07 84 1011.9
20260508065231 46 207 5.0 7.0 0.00 0.07 0.07 85 1011.7
20260508064728 46 198 2.0 7.0 0.00 0.07 0.07 85 1011.6
20260508064227 46 183 4.0 10.0 0.00 0.07 0.07 85 1011.7
20260508063723 46 201 4.0 8.0 0.00 0.07 0.07 85 1011.6
20260508063221 46 200 7.0 11.0 0.09 0.07 0.07 84 1011.8
20260508062718 46 209 13.0 18.0 0.12 0.07 0.07 83 1011.7
20260508062216 46 158 5.0 12.0 0.00 0.06 0.06 83 1011.8
20260508061713 46 205 7.0 12.0 0.00 0.06 0.06 83 1011.8
20260508061210 46 199 5.0 11.0 0.00 0.06 0.06 83 1012.0
20260508060706 46 213 10.0 11.0 0.00 0.06 0.06 83 1011.9
20260508060204 46 201 12.0 12.0 0.00 0.06 0.06 82 1012.0
20260508055659 46 207 10.0 14.0 0.00 0.06 0.06 83 1012.2
20260508055156 46 208 10.0 12.0 0.00 0.06 0.06 83 1012.1
20260508054653 46 203 5.0 13.0 0.00 0.06 0.06 83 1012.1
20260508054151 46 200 9.0 11.0 0.00 0.06 0.06 83 1012.2
20260508053647 46 210 10.0 11.0 0.00 0.06 0.06 82 1012.2
20260508053145 46 206 6.0 11.0 0.00 0.06 0.06 82 1012.2
20260508052642 46 174 4.0 11.0 0.00 0.06 0.06 83 1012.2
20260508052139 47 197 8.0 15.0 0.00 0.06 0.06 82 1012.1
20260508051635 47 197 9.0 12.0 0.00 0.06 0.06 82 1012.2
20260508051131 47 210 10.0 17.0 0.00 0.06 0.06 82 1012.1
20260508050627 47 200 5.0 15.0 0.00 0.06 0.06 81 1012.2
20260508050125 47 213 13.0 17.0 0.05 0.06 0.06 81 1012.3
20260508045620 46 214 6.0 16.0 0.12 0.06 0.06 82 1012.0
20260508045119 47 208 10.0 16.0 0.05 0.04 0.04 80 1012.5
20260508044615 47 256 11.0 15.0 0.05 0.04 0.04 78 1013.2
20260508044111 47 271 5.0 9.0 0.07 0.03 0.03 79 1013.0
20260508043608 47 279 4.0 6.0 0.07 0.03 0.03 78 1013.1
20260508043106 48 251 3.0 15.0 0.02 0.02 0.02 77 1013.2
20260508042602 47 327 6.0 7.0 0.02 0.02 0.02 77 1012.9
20260508042100 48 331 2.0 4.0 0.02 0.02 0.02 78 1012.8
20260508041556 48 212 1.0 4.0 0.00 0.01 0.01 74 1012.7
20260508041052 48 181 3.0 6.0 0.05 0.01 0.01 74 1012.7
20260508040549 48 177 2.0 6.0 0.09 0.01 0.01 74 1012.5
20260508040047 48 210 4.0 8.0 0.05 0.00 0.00 72 1012.9
20260508035543 49 210 4.0 11.0 0.00 0.00 0.00 68 1012.4
20260508035041 49 204 6.0 10.0 0.00 0.00 0.00 67 1012.4
20260508034538 48 353 1.0 6.0 0.00 0.00 0.00 68 1012.2
20260508034035 48 191 3.0 5.0 0.00 0.00 0.00 69 1012.1
20260508033532 47 124 1.0 4.0 0.00 0.00 0.00 72 1012.1
20260508033031 47 198 1.0 3.0 0.00 0.00 0.00 74 1012.2
20260508032527 47 53 0.0 2.0 0.00 0.00 0.00 73 1012.1
20260508032025 48 146 1.0 3.0 0.00 0.00 0.00 71 1012.3
20260508031522 48 122 3.0 6.0 0.00 0.00 0.00 69 1012.4
20260508031017 48 188 3.0 5.0 0.00 0.00 0.00 68 1012.4
20260508030514 48 195 3.0 6.0 0.00 0.00 0.00 64 1012.6
20260508030012 48 164 3.0 5.0 0.00 0.00 0.00 65 1012.3
20260508025508 48 186 2.0 3.0 0.00 0.00 0.00 65 1012.4
20260508025005 48 206 2.0 3.0 0.00 0.00 0.00 65 1012.5
20260508024501 48 85 2.0 6.0 0.00 0.00 0.00 64 1012.7
20260508023958 49 165 2.0 6.0 0.00 0.00 0.00 63 1012.3
20260508023454 49 193 4.0 6.0 0.00 0.00 0.00 63 1012.4
20260508022952 49 125 1.0 3.0 0.00 0.00 0.00 64 1012.6
20260508022447 49 182 3.0 5.0 0.00 0.00 0.00 62 1012.6
20260508021944 50 196 4.0 5.0 0.00 0.00 0.00 62 1012.7
20260508021441 50 178 2.0 4.0 0.00 0.00 0.00 61 1012.6
20260508020936 50 200 3.0 5.0 0.00 0.00 0.00 61 1012.6
20260508020435 50 197 3.0 5.0 0.00 0.00 0.00 61 1012.7
20260508015931 50 199 3.0 5.0 0.00 0.00 0.00 62 1012.7
20260508015429 50 224 3.0 5.0 0.00 0.00 0.00 61 1012.6
20260508014925 50 203 2.0 3.0 0.00 0.00 0.00 60 1012.6
20260508014423 50 204 2.0 4.0 0.00 0.00 0.00 59 1012.5
20260508013918 50 185 1.0 5.0 0.00 0.00 0.00 61 1012.5
20260508013414 51 192 2.0 5.0 0.00 0.00 0.00 59 1012.6
20260508012912 50 200 2.0 8.0 0.00 0.00 0.00 59 1012.5
20260508012409 51 277 5.0 10.0 0.00 0.00 0.00 57 1012.6
20260508011907 50 228 2.0 7.0 0.00 0.00 0.00 61 1012.7
20260508011404 51 240 5.0 7.0 0.00 0.00 0.00 59 1012.5
20260508010901 51 245 7.0 10.0 0.00 0.00 0.00 56 1012.5
20260508010358 51 261 9.0 14.0 0.00 0.00 0.00 55 1012.4
20260508005855 51 252 9.0 16.0 0.00 0.00 0.00 55 1012.4
20260508005352 51 262 12.0 14.0 0.00 0.00 0.00 55 1012.5
20260508004848 51 273 12.0 13.0 0.00 0.00 0.00 56 1012.6
20260508004345 51 237 8.0 11.0 0.00 0.00 0.00 54 1012.4
20260508003841 52 253 9.0 12.0 0.00 0.00 0.00 52 1012.5
20260508003338 52 253 10.0 14.0 0.00 0.00 0.00 50 1012.3
20260508002836 52 271 14.0 19.0 0.00 0.00 0.00 47 1012.4
20260508002332 52 255 9.0 15.0 0.00 0.00 0.00 48 1012.1
20260508001828 53 286 6.0 16.0 0.00 0.00 0.00 46 1012.3
20260508001324 53 287 11.0 20.0 0.00 0.00 0.00 46 1012.4
20260508000821 53 268 5.0 19.0 0.00 0.00 0.00 46 1012.3
20260508000319 53 279 13.0 19.0 0.00 0.00 0.00 46 1012.2
20260507235814 53 253 10.0 20.0 0.00 0.00 0.00 46 1012.2
20260507235312 53 269 13.0 22.0 0.00 0.00 0.00 44 1012.0
20260507234808 53 277 18.0 25.0 0.00 0.00 0.00 43 1011.8
20260507234305 54 262 14.0 27.0 0.00 0.00 0.00 43 1011.9
20260507233801 54 268 8.0 23.0 0.00 0.00 0.00 40 1011.8
20260507233259 55 283 20.0 21.0 0.00 0.00 0.00 38 1012.0
20260507232757 55 322 4.0 19.0 0.00 0.00 0.00 39 1011.9
20260507232253 55 289 10.0 19.0 0.00 0.00 0.00 38 1011.7
20260507231750 55 310 14.0 16.0 0.00 0.00 0.00 36 1011.7
20260507231247 55 245 6.0 13.0 0.00 0.00 0.00 38 1011.6
20260507230743 55 262 11.0 15.0 0.00 0.00 0.00 36 1011.6
20260507230241 56 271 7.0 15.0 0.00 0.00 0.00 40 1011.7
20260507225740 56 301 6.0 19.0 0.00 0.00 0.00 34 1011.6
20260507225237 56 263 8.0 17.0 0.00 0.00 0.00 35 1011.5
20260507224733 56 263 9.0 12.0 0.00 0.00 0.00 33 1011.6
20260507224230 56 262 8.0 14.0 0.00 0.00 0.00 35 1011.7
20260507223726 56 253 10.0 16.0 0.00 0.00 0.00 36 1011.8
20260507223223 56 275 8.0 17.0 0.00 0.00 0.00 34 1011.9
20260507222719 56 257 15.0 25.0 0.00 0.00 0.00 36 1011.7
20260507222216 57 268 13.0 25.0 0.00 0.00 0.00 34 1011.5
20260507221713 57 287 7.0 12.0 0.00 0.00 0.00 32 1011.7
20260507221209 57 285 6.0 11.0 0.00 0.00 0.00 32 1011.7
20260507220706 56 307 3.0 12.0 0.00 0.00 0.00 32 1011.6
20260507220204 56 296 3.0 14.0 0.00 0.00 0.00 33 1011.8
20260507215700 56 280 7.0 12.0 0.00 0.00 0.00 35 1011.8
20260507215157 56 273 10.0 20.0 0.00 0.00 0.00 34 1011.9
20260507214654 58 261 6.0 17.0 0.00 0.00 0.00 33 1011.7
20260507214151 58 269 13.0 17.0 0.00 0.00 0.00 33 1011.6
20260507213647 57 316 11.0 18.0 0.00 0.00 0.00 32 1011.7
20260507213144 56 263 15.0 27.0 0.00 0.00 0.00 33 1011.6
20260507212640 56 313 5.0 25.0 0.00 0.00 0.00 32 1011.8
20260507212137 58 293 4.0 15.0 0.00 0.00 0.00 34 1011.7
20260507211634 56 315 9.0 17.0 0.00 0.00 0.00 36 1011.9
20260507211129 55 304 12.0 21.0 0.00 0.00 0.00 35 1011.6
20260507210628 58 289 15.0 29.0 0.00 0.00 0.00 36 1011.6
20260507210124 57 304 10.0 14.0 0.00 0.00 0.00 33 1011.7
20260507205621 56 295 11.0 22.0 0.00 0.00 0.00 36 1011.8
20260507205117 56 288 15.0 19.0 0.00 0.00 0.00 34 1011.8
20260507204613 57 280 24.0 28.0 0.00 0.00 0.00 33 1011.8
20260507204111 57 271 21.0 25.0 0.00 0.00 0.00 31 1011.7
20260507203609 57 305 5.0 22.0 0.00 0.00 0.00 38 1011.6
20260507203106 56 266 22.0 24.0 0.00 0.00 0.00 34 1011.7
20260507202601 56 283 14.0 22.0 0.00 0.00 0.00 36 1011.8
20260507202058 56 321 16.0 22.0 0.00 0.00 0.00 35 1011.9
20260507201553 55 320 24.0 25.0 0.00 0.00 0.00 38 1011.9
20260507201050 56 288 5.0 19.0 0.00 0.00 0.00 37 1012.2
20260507200545 56 309 10.0 15.0 0.00 0.00 0.00 38 1012.0
20260507200042 55 263 3.0 24.0 0.00 0.00 0.00 35 1012.1
20260507195539 55 338 30.0 30.0 0.00 0.00 0.00 36 1012.1
20260507195037 55 326 21.0 31.0 0.00 0.00 0.00 36 1012.0
20260507194533 55 333 14.0 26.0 0.00 0.00 0.00 36 1012.2
20260507194029 57 300 7.0 19.0 0.00 0.00 0.00 36 1012.1
20260507193526 56 300 15.0 24.0 0.00 0.00 0.00 33 1012.1
20260507193023 56 299 4.0 17.0 0.00 0.00 0.00 36 1012.1
20260507192519 56 304 7.0 25.0 0.00 0.00 0.00 33 1012.0
20260507192016 57 273 21.0 24.0 0.00 0.00 0.00 38 1012.0
20260507191511 55 308 10.0 22.0 0.00 0.00 0.00 41 1012.2
20260507191009 55 316 20.0 22.0 0.00 0.00 0.00 37 1012.3
20260507190506 55 310 8.0 21.0 0.00 0.00 0.00 38 1012.2
20260507190006 55 320 12.0 24.0 0.00 0.00 0.00 39 1012.2
20260507185502 56 312 11.0 25.0 0.00 0.00 0.00 36 1012.4
20260507184959 55 277 6.0 25.0 0.00 0.00 0.00 35 1012.3
20260507184457 55 278 17.0 24.0 0.00 0.00 0.00 41 1012.5
20260507183955 55 322 13.0 21.0 0.00 0.00 0.00 39 1012.4
20260507183450 54 310 6.0 23.0 0.00 0.00 0.00 40 1012.3
20260507182948 55 305 7.0 28.0 0.00 0.00 0.00 39 1012.5
20260507182444 54 313 24.0 32.0 0.00 0.00 0.00 36 1012.5
20260507181940 54 300 24.0 38.0 0.00 0.00 0.00 37 1012.4
20260507181436 54 315 9.0 33.0 0.00 0.00 0.00 39 1012.5
20260507180933 53 280 7.0 18.0 0.00 0.00 0.00 42 1012.6
20260507180430 53 274 13.0 27.0 0.00 0.00 0.00 41 1012.5
20260507175926 54 280 17.0 22.0 0.00 0.00 0.00 41 1012.6